Lid_Strength_Index
12 13 14 12 13 13 14 15 16 15 13 14 14 15 12 12 14 13 12 13 13 12 12 12 11 11 10 9 9 10 8 9 9 10 10 10 13 13 12 12 12 12 11 12
13 14 11 11 13 13 15 16 15 14 13 14 14 15 13 12 12 11 10 13 12 14 14 13 12 11 9 10 9 9 9 9 9 9 11 12 13 14 14 14 14 13 13 13
13 12 11 11 14 14 15 16 16 15 14 15 16 17 15 13 13 11 11 13 13 13 13 13 13 11 9 9 9 10 9 10 10 12 13 13 13 14 14 15 14 14 14 15
13 12 12 13 14 13 16 13 14 15 16 18 16 19 16 14 13 11 13 13 13 13 13 13 12 11 10 9 9 9 10 11 12 12 13 12 12 13 15 15 15 15 15 15
13 13 13 14 13 12 14 13 14 15 17 18 19 19 18 15 14 12 13 14 14 14 14 13 12 11 9 9 9 10 10 12 12 12 12 12 12 15 15 15 16 16 16 16
13 12 12 12 13 12 13 14 15 17 17 20 18 18 18 16 14 14 13 13 13 14 14 13 13 10 9 9 10 10 12 12 12 12 12 13 15 15 16 16 16 16 16 16
14 13 13 12 13 13 15 15 19 20 21 20 19 19 15 14 13 14 13 13 13 15 15 14 13 11 10 10 10 11 12 13 13 13 13 14 14 14 15 16 17 17 17 17
15 17 13 12 12 14 15 15 18 22 22 21 19 20 16 14 13 13 14 14 15 15 15 14 13 11 10 10 11 11 12 13 13 13 14 14 14 15 15 15 16 16 17 17
16 16 14 14 14 12 16 17 14 18 25 23 19 17 15 13 13 13 14 14 15 15 15 15 14 12 11 11 12 12 12 13 13 14 14 15 15 15 15 16 16 17 17 17
13 16 15 15 13 14 14 14 17 19 24 25 20 20 17 15 14 14 14 14 15 15 15 15 14 14 13 13 13 11 12 13 13 14 14 14 15 15 15 16 17 17 18 18
13 14 17 15 16 16 16 17 17 16 18 22 24 19 16 15 14 14 14 14 14 15 15 15 15 15 14 14 13 12 13 13 14 14 14 14 15 15 16 17 17 18 18 19
13 14 18 17 15 14 15 15 15 17 20 20 20 18 14 14 14 14 14 14 15 15 15 15 15 16 16 15 15 14 13 13 14 14 14 15 15 16 16 17 18 18 19 19
11 14 18 17 14 14 16 15 14 14 16 20 21 18 15 16 15 14 14 14 15 15 16 16 16 16 16 16 16 15 14 14 14 14 15 15 16 16 17 18 18 18 19 19
9 13 15 18 16 14 16 15 14 13 16 19 16 15 14 15 14 14 14 14 15 15 16 16 16 16 16 16 16 16 15 14 14 14 15 16 16 16 17 18 18 19 19 19
10 15 14 13 13 14 15 15 15 15 14 16 14 14 12 11 11 11 13 13 15 15 16 16 16 16 16 16 16 16 15 15 15 15 16 16 16 16 17 18 18 19 19 19
10 15 14 15 13 13 15 14 14 14 13 13 13 14 11 11 12 13 12 13 14 14 15 15 16 16 16 16 16 16 16 16 15 16 16 16 16 17 18 18 19 19 19 19
12 14 15 17 14 14 17 14 14 14 13 13 15 12 9 12 12 11 11 12 12 13 13 14 15 15 15 15 15 15 15 16 16 16 16 16 17 18 18 18 19 19 19 19
13 13 14 17 15 21 14 13 11 12 11 11 11 11 10 11 11 11 12 11 11 12 12 13 13 14 14 15 15 15 16 16 16 16 16 17 17 17 18 18 18 19 19 20
11 12 15 18 18 15 15 16 15 14 13 10 11 10 9 9 14 12 11 10 10 10 10 11 12 14 15 15 15 16 16 16 16 16 17 17 17 17 18 19 19 19 19 19
11 11 14 16 19 20 15 14 15 13 15 11 10 10 9 11 14 11 10 11 12 12 12 12 13 15 15 15 15 16 17 16 16 16 16 16 16 17 18 18 18 18 18 18
14 14 16 16 17 15 13 16 13 16 15 15 11 9 10 12 11 13 14 14 14 13 13 14 15 16 16 16 16 16 16 16 15 15 16 16 16 16 16 17 17 18 18 17
14 16 16 15 17 19 14 15 14 13 15 14 15 13 13 12 12 14 14 14 13 14 14 15 16 17 16 16 15 16 16 15 15 15 16 16 15 16 16 17 17 17 17 17
15 13 14 14 15 13 14 15 12 13 13 14 14 14 13 13 13 14 14 14 15 17 16 18 17 18 18 16 15 16 16 15 15 15 15 15 15 15 15 16 16 17 17 16
14 14 13 13 12 13 12 12 14 13 14 15 14 14 13 13 13 14 15 15 15 18 18 20 18 18 18 19 17 16 15 14 15 15 15 14 14 15 15 15 15 15 16 15
11 12 14 14 13 11 10 11 12 12 12 14 15 14 13 13 15 15 16 17 16 16 19 19 18 18 18 19 18 17 16 14 14 15 15 14 14 14 15 14 14 15 13 12
11 12 12 13 11 10 10 9 10 9 9 11 13 15 15 13 14 16 17 16 17 17 20 20 20 20 21 19 19 18 15 14 15 16 15 13 13 13 14 15 14 11 11 11